Voltar ao catálogo

COSMOS 1372 FUEL CORE

AtivoLEO
NORAD 13416·DEBRIS·🇷🇺 Russia

Lançado Jun 1, 1982 de Baikonur Cosmodrome

Loading…

Próximas Passagens (próximas 24 horas)

TLE

AtualizadoSource: Space-Track

Época: Sep 14, 2026, 19:36 UTC

1 13416U 82052D   26257.81733757 -.00000097  00000-0 -53488-5 0  9996
2 13416  64.9011  88.2563 0029448 228.2143 145.8515 13.89965211249299

Acompanhe COSMOS 1372 FUEL CORE em tempo real com AllMySat

Download on the App Store